TimeCDT,TemperatureF,Dew PointF,Humidity,Sea Level PressureIn,VisibilityMPH,Wind Direction,Wind SpeedMPH,Gust SpeedMPH,PrecipitationIn,Events,Conditions,WindDirDegrees,DateUTC
12:41 AM,60.8,59.0,94,30.10,3.0,Calm,Calm,-,N/A,,Clear,0,2012-10-04 05:41:00
12:53 AM,62.1,60.1,93,30.10,2.5,Calm,Calm,-,N/A,,Clear,0,2012-10-04 05:53:00
1:04 AM,60.8,59.0,94,30.11,0.8,Calm,Calm,-,N/A,,Clear,0,2012-10-04 06:04:00
1:21 AM,60.8,59.0,94,30.11,1.8,Calm,Calm,-,N/A,,Clear,0,2012-10-04 06:21:00
1:28 AM,60.8,59.0,94,30.11,0.8,Calm,Calm,-,N/A,,Mist,0,2012-10-04 06:28:00
1:53 AM,59.0,57.9,96,30.11,0.8,Calm,Calm,-,N/A,,Mist,0,2012-10-04 06:53:00
2:09 AM,60.8,57.2,88,30.12,1.2,Calm,Calm,-,N/A,,Scattered Clouds,0,2012-10-04 07:09:00
2:18 AM,60.8,57.2,88,30.12,0.8,Calm,Calm,-,N/A,,Mist,0,2012-10-04 07:18:00
2:53 AM,60.1,57.9,93,30.12,0.5,Calm,Calm,-,N/A,Fog,Fog,0,2012-10-04 07:53:00
3:33 AM,59.0,57.2,94,30.13,1.2,Calm,Calm,-,N/A,,Scattered Clouds,0,2012-10-04 08:33:00
3:40 AM,57.2,57.2,100,30.13,3.0,Calm,Calm,-,N/A,,Scattered Clouds,0,2012-10-04 08:40:00
3:53 AM,57.9,55.9,93,30.13,2.5,Calm,Calm,-,N/A,,Clear,0,2012-10-04 08:53:00
4:03 AM,59.0,57.2,94,30.13,1.5,Calm,Calm,-,N/A,,Clear,0,2012-10-04 09:03:00
4:25 AM,59.0,57.2,94,30.14,0.8,Calm,Calm,-,0.01,,Mist,0,2012-10-04 09:25:00
4:31 AM,57.2,57.2,100,30.14,0.2,Calm,Calm,-,0.01,Fog,Fog,0,2012-10-04 09:31:00
4:40 AM,57.2,55.4,94,30.14,0.8,Calm,Calm,-,0.01,,Mist,0,2012-10-04 09:40:00
4:48 AM,57.2,57.2,100,30.15,1.8,Calm,Calm,-,0.01,,Overcast,0,2012-10-04 09:48:00
4:53 AM,57.9,55.9,93,30.14,1.8,Calm,Calm,-,0.01,,Overcast,0,2012-10-04 09:53:00
5:06 AM,57.2,55.4,94,30.15,0.5,Calm,Calm,-,N/A,Fog,Fog,0,2012-10-04 10:06:00
5:37 AM,57.2,55.4,94,30.16,2.0,Calm,Calm,-,N/A,,Overcast,0,2012-10-04 10:37:00
5:53 AM,57.9,55.9,93,30.16,2.0,Calm,Calm,-,N/A,,Overcast,0,2012-10-04 10:53:00
6:01 AM,57.2,55.4,94,30.16,1.8,Calm,Calm,-,N/A,,Overcast,0,2012-10-04 11:01:00
6:10 AM,57.2,55.4,94,30.16,0.5,Calm,Calm,-,N/A,Fog,Fog,0,2012-10-04 11:10:00
6:19 AM,57.2,55.4,94,30.17,0.2,Calm,Calm,-,N/A,Fog,Fog,0,2012-10-04 11:19:00
6:34 AM,57.2,55.4,94,30.17,0.8,Calm,Calm,-,N/A,,Mist,0,2012-10-04 11:34:00
6:42 AM,57.2,55.4,94,30.17,1.0,Calm,Calm,-,N/A,,Mist,0,2012-10-04 11:42:00
6:47 AM,57.2,57.2,100,30.18,0.5,Calm,Calm,-,N/A,Fog,Fog,0,2012-10-04 11:47:00
6:53 AM,57.9,55.9,93,30.17,0.5,Calm,Calm,-,N/A,Fog,Fog,0,2012-10-04 11:53:00
7:08 AM,57.2,57.2,100,30.17,0.2,Calm,Calm,-,N/A,Fog,Fog,0,2012-10-04 12:08:00
7:53 AM,61.0,60.1,97,30.18,0.2,Calm,Calm,-,N/A,Fog,Fog,0,2012-10-04 12:53:00
8:53 AM,64.9,64.0,97,30.20,0.2,Calm,Calm,-,N/A,Fog,Fog,0,2012-10-04 13:53:00
9:00 AM,66.2,64.4,94,30.20,1.0,Calm,Calm,-,N/A,,Mist,0,2012-10-04 14:00:00
9:09 AM,66.2,64.4,94,30.21,2.5,Calm,Calm,-,N/A,,Scattered Clouds,0,2012-10-04 14:09:00
9:19 AM,68.0,66.2,94,30.21,4.0,Calm,Calm,-,N/A,,Partly Cloudy,0,2012-10-04 14:19:00
9:53 AM,73.9,66.9,79,30.21,9.0,ESE,4.6,-,N/A,,Clear,120,2012-10-04 14:53:00
10:53 AM,80.1,68.0,67,30.21,10.0,ESE,4.6,-,N/A,,Clear,120,2012-10-04 15:53:00
11:53 AM,82.0,63.0,52,30.21,10.0,SE,3.5,-,N/A,,Partly Cloudy,140,2012-10-04 16:53:00
12:53 PM,84.0,62.1,47,30.19,10.0,Calm,Calm,-,N/A,,Clear,0,2012-10-04 17:53:00
1:53 PM,84.9,62.1,46,30.16,10.0,Variable,3.5,-,N/A,,Partly Cloudy,0,2012-10-04 18:53:00
2:53 PM,84.9,62.1,46,30.15,10.0,Variable,4.6,-,N/A,,Clear,0,2012-10-04 19:53:00
3:53 PM,86.0,61.0,43,30.14,10.0,Calm,Calm,-,N/A,,Partly Cloudy,0,2012-10-04 20:53:00
4:53 PM,86.0,60.1,41,30.14,10.0,SSE,5.8,-,N/A,,Clear,160,2012-10-04 21:53:00
5:53 PM,84.0,63.0,49,30.13,10.0,East,3.5,-,N/A,,Clear,100,2012-10-04 22:53:00
6:53 PM,73.9,66.9,79,30.13,10.0,Calm,Calm,-,N/A,,Clear,0,2012-10-04 23:53:00
7:53 PM,70.0,66.9,90,30.13,9.0,Calm,Calm,-,N/A,,Clear,0,2012-10-05 00:53:00
8:53 PM,68.0,66.0,93,30.14,6.0,Calm,Calm,-,N/A,,Clear,0,2012-10-05 01:53:00
8:59 PM,66.2,64.4,94,30.14,0.8,Calm,Calm,-,N/A,,Mist,0,2012-10-05 01:59:00
9:12 PM,68.0,64.4,88,30.14,1.2,Calm,Calm,-,N/A,,Partly Cloudy,0,2012-10-05 02:12:00
9:19 PM,68.0,64.4,88,30.14,3.0,Calm,Calm,-,N/A,,Partly Cloudy,0,2012-10-05 02:19:00
9:53 PM,66.9,64.9,93,30.14,5.0,Calm,Calm,-,N/A,,Clear,0,2012-10-05 02:53:00
10:38 PM,64.4,62.6,94,30.15,1.5,Calm,Calm,-,N/A,,Clear,0,2012-10-05 03:38:00
10:46 PM,66.2,62.6,88,30.15,0.5,Calm,Calm,-,N/A,Fog,Fog,0,2012-10-05 03:46:00
10:53 PM,64.9,63.0,93,30.14,2.0,Calm,Calm,-,N/A,,Clear,0,2012-10-05 03:53:00
11:12 PM,64.4,62.6,94,30.15,0.8,Calm,Calm,-,N/A,,Clear,0,2012-10-05 04:12:00
11:35 PM,64.4,62.6,94,30.15,2.0,Calm,Calm,-,N/A,,Clear,0,2012-10-05 04:35:00
11:43 PM,64.4,62.6,94,30.15,3.0,Calm,Calm,-,N/A,,Clear,0,2012-10-05 04:43:00
11:47 PM,64.4,62.6,94,30.15,1.8,Calm,Calm,-,N/A,,Clear,0,2012-10-05 04:47:00
11:53 PM,64.0,62.1,93,30.14,1.0,Calm,Calm,-,N/A,,Clear,0,2012-10-05 04:53:00